Location: Emory University Observatory
(33.7903°N, 84.3267°W)
Time: 01:07:24
(UTC-04:00)

Vanguard 2 Rocket - Visible Passes

Search period start: 22 July 2018 00:00
Search period end: 01 August 2018 00:00
Orbit: 554 x 3327 km, 32.9° (Epoch: 21 July)

Date Brightness Start Highest point End Pass type
(mag) Time Alt. Az. Time Alt. Az. Time Alt. Az.
22 Jul 9.3 02:15:43 11° E 02:15:43 11° E 02:16:03 10° E visible
22 Jul 7.1 04:21:31 49° WSW 04:23:25 79° S 04:33:18 10° E visible
23 Jul 7.5 03:25:26 50° ESE 03:25:26 50° ESE 03:31:46 10° E visible
23 Jul 7.7 05:31:14 11° W 05:37:39 84° S 05:49:47 10° E visible
24 Jul 9.0 02:29:22 15° E 02:29:22 15° E 02:30:45 10° E visible
24 Jul 7.2 04:35:11 37° W 04:37:50 85° S 04:47:43 10° E visible
25 Jul 7.0 03:39:10 66° ESE 03:39:10 66° ESE 03:46:12 10° E visible
25 Jul 7.7 05:45:33 10° W 05:52:05 76° S 06:04:05 10° ESE visible
26 Jul 8.8 02:43:11 19° E 02:43:11 19° E 02:45:15 10° E visible
26 Jul 7.2 04:49:01 29° W 04:52:18 82° S 05:02:09 10° E visible
27 Jul 6.7 03:53:05 79° ESE 03:53:05 79° ESE 04:00:39 10° E visible
27 Jul 7.8 06:00:02 10° W 06:06:30 63° SSW 06:18:09 10° ESE visible
28 Jul 8.6 02:57:12 22° E 02:57:12 22° E 02:59:42 10° E visible
28 Jul 7.2 05:03:03 24° W 05:06:43 71° S 05:16:26 10° ESE visible
29 Jul 6.6 04:07:14 79° S 04:07:14 79° S 04:15:04 10° E visible
29 Jul 8.1 06:14:37 10° W 06:20:55 47° SSW 06:31:49 10° SE visible
30 Jul 8.5 03:11:30 23° E 03:11:30 23° E 03:14:09 10° E visible
30 Jul 7.4 05:17:21 22° W 05:21:09 55° SSW 05:30:29 10° ESE visible
31 Jul 6.7 04:21:42 65° S 04:21:42 65° S 04:29:21 10° ESE visible
